Terug naar catalogus

COSMOS 1375 DEB

ActiefLEO
NORAD 18413·DEBRIS·🇷🇺 Russia

Gelanceerd Jun 6, 1982 vanaf Plesetsk Cosmodrome

Loading…

Volgende Passages (komende 24 uur)

TLE

VersSource: Space-Track

Epoch: Sep 13, 2026, 17:14 UTC

1 18413U 82055BC  26256.71838373  .00000542  00000-0  67684-3 0  9993
2 18413  65.8219 119.5044 0068371 106.1281 319.6858 13.71676103 36686

Volg COSMOS 1375 DEB in realtime met AllMySat

Download on the App Store